Regional Weather Roundup
Issued by NWS

Home | Current Version | Previous Version | Graphics & Text | Print | Product List | Glossary On
Versions: 1 2 3 4 5 6 7 8 9 10 11 12 13 14 15 16 17 18 19 20 21 22 23 24 25 26 27 28 29 30 31 32 33 34 35 36 37 38 39 40 41 42 43 44 45 46 47 48 49
000
ASUS45 KBOU 240607
RWRCO

WEATHER ROUNDUP FOR COLORADO
NATIONAL WEATHER SERVICE DENVER/BOULDER CO
1100 PM MST TUE DEC 23 2014

NOTE: "FAIR" INDICATES FEW OR NO CLOUDS BELOW 12000 FEET WITH NO
SIGNIFICANT WEATHER AND/OR OBSTRUCTIONS TO VISIBILITY.

COZ001>005-013-030-031-240700-
...NORTHWEST COLORADO...

CITY           SKY/WX    TMP DP  RH WIND       PRES   REMARKS
CRAIG          FAIR       3  -1  83 CALM      30.27S
HAYDEN         FAIR       7   3  85 E6        30.24R WCI  -3
MEEKER         FAIR       6   2  83 E5        30.27S WCI  -3
MOUNT WERNER   NOT AVBL
STEAMBOAT SPGS CLOUDY    12   7  81 CALM      30.24R
WALDEN         FAIR       0  -6  78 E8        30.13S WCI -15
$$

COZ006>008-011-240700-
...WEST CENTRAL VALLEYS...

CITY           SKY/WX    TMP DP  RH WIND       PRES   REMARKS
GRAND JUNCTION FAIR      22  17  81 E5        30.29F WCI  16
MONTROSE       FAIR      19  12  74 SE9       30.31R WCI   8
EAGLE          CLEAR      3   0  85 VRB5      30.31S WCI  -6
RIFLE          FAIR      18   8  65 SE7       30.31R WCI   9
DELTA          FAIR      23  11  62 N5        30.32R WCI  16
NUCLA          FAIR      21  12  68 SE7       30.32R WCI  13
$$

COZ017>023-064>068-240700-
...SOUTHWEST COLORADO...

CITY           SKY/WX    TMP DP  RH WIND       PRES   REMARKS
DURANGO        FAIR      14   6  70 E3        30.16R
CORTEZ         FAIR      25   9  50 NW10      30.22S WCI  15
PAGOSA SPRINGS FAIR      11   0  60 CALM      30.13R
TELLURIDE      FAIR       8   3  80 E7        30.20S WCI  -4
WOLF CREEK PAS FAIR       3 -15  43 MISG      30.04R
$$

COZ009-010-012-014-032>034-037-058>063-240700-
...CENTRAL COLORADO...

CITY           SKY/WX    TMP DP  RH WIND       PRES   REMARKS
ASPEN          FAIR       1  -4  79 SW8       30.22S WCI -13
BUENA VISTA    FAIR      14   0  55 NW26      30.11S WCI  -6
COPPER MTN     CLOUDY     3  -4  72 W25G32    30.03S WCI -20
BERTHOUD PASS  NOT AVBL
COTTONWOOD PAS FAIR      14  -6  41 N5G20     30.04F WCI   6
GUNNISON       FAIR      -6 -18  54 S3        30.23F
KREMMLING      CLOUDY    16   9  73 W3        30.22R
LEADVILLE      FAIR      -4  -9  79 N8        30.10S WCI -19
MONARCH PASS   CLOUDY    -2  -6  84 MISG      30.10S
SALIDA         FAIR      11   0  60 W7        30.21F WCI   0
SUNLIGHT         N/A    N/A N/A N/A MISG      30.15R
WILKERSON PASS FAIR       3  -6  66 NW8G21    30.00S WCI -10
$$

COZ069>075-240700-
...SAN LUIS VALLEY/SANGRE DE CRISTO MOUNTAINS...

CITY           SKY/WX    TMP DP  RH WIND       PRES   REMARKS
ALAMOSA        FAIR       8   0  69 NE7       30.13F WCI  -3
LA VETA PASS   FAIR       5  -4  66 SW5       30.01F WCI  -4
SAGUACHE       FAIR       7  -2  66 N14       30.15S WCI -10
$$

COZ035-036-038>040-240700-
...NORTHERN COLORADO FRONT RANGE...

CITY           SKY/WX    TMP DP  RH WIND       PRES   REMARKS
DENVER INTL AP FAIR      21   9  59 SW7       30.11F WCI  12
DMNS CITY PARK   N/A     22   9  56 S5        30.12F WCI  16
AURORA         PTCLDY    18   8  66 S10       30.11F WCI   6
FRONT RANGE AP FAIR      23  12  63 SW7       30.11F WCI  15
ERIE MUNI ARPT   N/A     19  10  67 CALM      30.11F
BOULDER MUN AP FAIR      23   9  54 SE5       30.09F WCI  17
CENTENNIAL     FAIR      15   7  70 S9        30.10F WCI   3
BROOMFIELD     FAIR      25   9  50 SE3       30.10F
FORT COLLINS   FAIR      19   9  63 S6        30.12S WCI  11
LONGMONT       FAIR      17   9  72 CALM      30.13F
$$

COZ041-046-047-076>085-087-088-240700-
...PIKES PEAK/PALMER DIVIDE AND SOUTHERN FOOTHILLS...

CITY           SKY/WX    TMP DP  RH WIND       PRES   REMARKS
COLO. SPRINGS  FAIR      16   5  62 VRB6      30.12S WCI   7
A. F. ACADEMY  FAIR       7  -1  71 N8        30.10S WCI  -6
ELLICOTT       NOT AVBL
FALCON         FAIR      16   4  59 NW7       30.09F WCI   6
FORT CARSON    FAIR      21   3  46 NW5       30.12S WCI  15
LIMON          FAIR      22  12  65 NW21      30.09F WCI   6
MONUMENT HILL  FAIR       7   1  78 W7        30.07S WCI  -5
TRINIDAD         N/A    N/A N/A N/A MISG      30.14F
$$

COZ042>045-048>051-090-091-240700-
...NORTHEAST COLORADO...

CITY           SKY/WX    TMP DP  RH WIND       PRES   REMARKS
GREELEY ARPT   FAIR      21   9  58 W7        30.11R WCI  13
AKRON          FAIR      17  12  80 NW10      30.09F WCI   5
BURLINGTON     FAIR      20  13  74 NW15      30.09F WCI   6
WRAY           FAIR      17  14  88 W9        30.11F WCI   6
STERLING       FAIR      19  14  79 CALM      30.12F
HOLYOKE        FAIR      27  19  74 NW10      30.10S WCI  17
FORT MORGAN    FAIR      22  13  65 NW9       30.12F WCI  12
$$

COZ086-089-092>099-240700-
...SOUTHEAST COLORADO...

CITY           SKY/WX    TMP DP  RH WIND       PRES   REMARKS
PUEBLO         FAIR      20  10  65 W9        30.16F WCI   9
LA JUNTA       FAIR      26  13  57 NW13      30.14F WCI  15
LAMAR          FAIR      22  17  81 W9        30.13S WCI  12
SPRINGFIELD      N/A     22  17  81 NW13      30.10F WCI  10
$$



USA.gov is the U.S. government's official web portal to all federal, state and local government web resources and services.